Weather History for KIZG - July, 2014

Change the Weather History Date:

Sunday, July 20, 2014

  Actual Average Record
Temperature  
Mean Temperature 65 °F -  
Max Temperature 78 °F 78 °F 89 °F (2005)
Min Temperature 55 °F 53 °F 39 °F (2000)
Growing Degree Days 15 (Base 50)    
Moisture  
Dew Point 59 °F    
Average Humidity 89    
Maximum Humidity 100    
Minimum Humidity 53    
Precipitation  
Precipitation 0.00 in - - ()
Sea Level Pressure  
Sea Level Pressure 30.23 in    
Wind  
Wind Speed 0 mph (East)    
Max Wind Speed 7 mph    
Max Gust Speed -    
Visibility 5 miles    
Events Fog , Rain    
Averages and records for this station are not official NWS values.
T = Trace of Precipitation, MM = Missing Value Source: NWS Daily Summary

Daily Weather History Graph

Daily Weather History Graph

Search for Another Location

Airport or City:

Trip Planner

Search our weather history database for the weather conditions in past years. The results will help you decide how hot, cold, wet, or windy it might be!

Date:

Astronomy

Jul. 20, 2014 Rise Set
Actual Time 5:19 AM EDT 8:20 PM EDT
Civil Twilight 4:45 AM EDT 8:54 PM EDT
Nautical Twilight 4:01 AM EDT 9:38 PM EDT
Astronomical Twilight 3:08 AM EDT 10:30 PM EDT
Moon 12:33 AM EDT (7/20) 2:57 PM EDT (7/20)
Length of Visible Light 16h 09m
Length of Day
15h 00m
Waning Crescent, 34% of the Moon is Illuminated
Jul 20
Waning Crescent
Jul 26
New
Aug 3
First Quarter
Aug 10
Full
Aug 17
Last Quarter

Hourly Weather History & Observations

Time (EDT) Temp. Dew Point Humidity Pressure Visibility Wind Dir Wind Speed Gust Speed Precip Events Conditions
12:54 AM 61.0 °F 60.1 °F 97% 30.24 in 10.0 mi Calm Calm - N/A   Clear
1:54 AM 60.1 °F 59.0 °F 96% 30.23 in 5.0 mi Calm Calm - N/A   Clear
2:02 AM 60.1 °F 59.0 °F 96% 30.23 in 1.2 mi Calm Calm - N/A   Clear
2:10 AM 59.0 °F 57.9 °F 96% 30.23 in 0.5 mi Calm Calm - N/A Fog Fog
2:17 AM 59.0 °F 57.0 °F 93% 30.23 in 1.5 mi Calm Calm - N/A   Partly Cloudy
2:23 AM 59.0 °F 57.9 °F 96% 30.23 in 3.0 mi Calm Calm - N/A   Partly Cloudy
2:30 AM 57.9 °F 57.0 °F 97% 30.23 in 1.8 mi Calm Calm - N/A   Partly Cloudy
2:36 AM 57.9 °F 55.9 °F 93% 30.23 in 3.0 mi Calm Calm - N/A   Partly Cloudy
2:54 AM 57.0 °F 55.9 °F 96% 30.23 in 6.0 mi Calm Calm - N/A   Partly Cloudy
3:05 AM 57.0 °F 55.9 °F 96% 30.23 in 1.2 mi Calm Calm - N/A   Clear
3:07 AM 57.0 °F 55.9 °F 96% 30.23 in 0.8 mi Calm Calm - N/A   Mist
3:32 AM 55.9 °F 55.9 °F 100% 30.22 in 1.2 mi Calm Calm - N/A   Scattered Clouds
3:34 AM 55.9 °F 55.9 °F 100% 30.22 in 2.5 mi Calm Calm - N/A   Scattered Clouds
3:41 AM 57.0 °F 55.9 °F 96% 30.23 in 10.0 mi Calm Calm - N/A   Partly Cloudy
3:54 AM 55.9 °F 55.0 °F 97% 30.23 in 4.0 mi Calm Calm - N/A   Scattered Clouds
4:04 AM 55.9 °F 55.0 °F 97% 30.23 in 6.0 mi Calm Calm - N/A   Mostly Cloudy
4:54 AM 57.9 °F 57.0 °F 97% 30.23 in 6.0 mi Calm Calm - N/A   Overcast
4:59 AM 57.9 °F 57.0 °F 97% 30.23 in 1.8 mi Calm Calm - N/A   Overcast
5:04 AM 57.9 °F 57.0 °F 97% 30.23 in 0.8 mi Calm Calm - N/A   Overcast
5:36 AM 59.0 °F 57.9 °F 96% 30.23 in 0.2 mi Calm Calm - N/A Fog Fog
5:54 AM 59.0 °F 57.9 °F 96% 30.24 in 0.2 mi Calm Calm - N/A Fog Fog
6:14 AM 60.1 °F 59.0 °F 96% 30.24 in 1.0 mi Calm Calm - N/A   Mist
6:16 AM 60.1 °F 59.0 °F 96% 30.24 in 2.0 mi Calm Calm - N/A   Overcast
6:25 AM 60.1 °F 59.0 °F 96% 30.24 in 3.0 mi Calm Calm - N/A   Overcast
6:31 AM 60.1 °F 59.0 °F 96% 30.24 in 1.2 mi Calm Calm - N/A   Overcast
6:35 AM 60.1 °F 59.0 °F 96% 30.24 in 0.2 mi Calm Calm - N/A Fog Fog
6:54 AM 61.0 °F 60.1 °F 97% 30.24 in 0.2 mi Calm Calm - N/A Fog Fog
7:50 AM 62.6 °F 60.8 °F 94% 30.24 in 0.5 mi Calm Calm - N/A Fog Fog
7:54 AM 62.1 °F 61.0 °F 96% 30.25 in 0.5 mi Calm Calm - N/A Fog Fog
8:14 AM 62.1 °F 62.1 °F 100% 30.25 in 1.5 mi Calm Calm - N/A   Overcast
8:36 AM 63.0 °F 62.1 °F 97% 30.25 in 3.0 mi Calm Calm - N/A   Overcast
8:54 AM 63.0 °F 62.1 °F 97% 30.25 in 6.0 mi Calm Calm - N/A   Overcast
9:54 AM 64.9 °F 62.1 °F 90% 30.25 in 10.0 mi Calm Calm - N/A   Overcast
10:03 AM 64.9 °F 62.1 °F 90% 30.25 in 10.0 mi Calm Calm - 0.00 in Rain Light Rain
10:29 AM 66.0 °F 63.0 °F 90% 30.25 in 10.0 mi Calm Calm - 0.00 in   Overcast
10:54 AM 66.9 °F 62.1 °F 84% 30.25 in 10.0 mi Calm Calm - 0.00 in Rain Light Rain
11:54 AM 72.0 °F 63.0 °F 73% 30.24 in 10.0 mi Variable 3.5 mph - 0.00 in   Mostly Cloudy
12:54 PM 73.0 °F 57.9 °F 59% 30.23 in 10.0 mi Variable 3.5 mph - N/A   Clear
1:54 PM 73.9 °F 60.1 °F 62% 30.21 in 10.0 mi Variable 6.9 mph - N/A   Clear
2:54 PM 75.0 °F 59.0 °F 57% 30.20 in 10.0 mi NE 6.9 mph - N/A   Scattered Clouds
3:54 PM 75.9 °F 61.0 °F 60% 30.19 in 10.0 mi Variable 4.6 mph - N/A   Mostly Cloudy
4:54 PM 75.0 °F 57.0 °F 53% 30.19 in 10.0 mi ESE 6.9 mph - N/A   Overcast
5:54 PM 73.9 °F 59.0 °F 59% 30.18 in 10.0 mi Variable 4.6 mph - N/A   Overcast
6:54 PM 72.0 °F 60.1 °F 66% 30.19 in 10.0 mi Calm Calm - N/A   Overcast
7:54 PM 68.0 °F 59.0 °F 73% 30.19 in 10.0 mi ESE 3.5 mph - N/A   Mostly Cloudy
8:54 PM 62.1 °F 60.1 °F 93% 30.20 in 10.0 mi Calm Calm - N/A   Mostly Cloudy
9:54 PM 59.0 °F 57.0 °F 93% 30.21 in 10.0 mi Calm Calm - N/A   Clear
10:54 PM 57.0 °F 55.9 °F 96% 30.21 in 5.0 mi Calm Calm - N/A   Clear
11:54 PM 55.9 °F 54.0 °F 93% 30.21 in 7.0 mi Calm Calm - N/A   Clear